Regional Weather Roundup
Issued by NWS

Home | Current Version | Previous Version | Text Only | Print | Product List | Glossary Off
Versions: 1 2 3 4 5 6 7 8 9 10 11 12 13 14 15 16 17 18 19 20 21 22 23 24 25 26 27 28 29 30 31 32 33 34 35 36 37 38 39 40 41 42 43 44 45 46 47 48 49 50

000
ASUS44 KMEG 262200
RWRTN
TENNESSEE HOURLY STATE WEATHER ROUNDUP
NATIONAL WEATHER SERVICE MEMPHIS TN
400 PM CST THU FEB 26 2015

TNZ002-004-019-021-049-052-054-088>092-262300-
WEST TENNESSEE

CITY           SKY/WX    TMP DP  RH WIND       PRES   REMARKS
MEMPHIS INTL   CLOUDY    32  25  75 N17       30.23R WCI  21
NWS MEMPHIS      N/A     32 N/A N/A MISG        N/A
JACKSON        CLOUDY    35  24  64 NW17G24   30.19R WCI  25
DYERSBURG      CLOUDY    28  12  50 N14G21    30.26R WCI  17
UNION CITY     CLOUDY    27  23  86 NW17      30.22R WCI  14
PARIS          CLOUDY    28  21  74 N12       30.19R WCI  18
LEXINGTON      CLOUDY    37  21  52 NW13      30.13R WCI  29
SAVANNAH       CLOUDY    41  25  52 N10       30.13R
$$

TNZ008-025-027-028-033-062-065-066-262300-
NORTH MIDDLE TENNESSEE

CITY           SKY/WX    TMP DP  RH WIND       PRES   REMARKS
NASHVILLE      CLOUDY    39  24  55 NW13      30.11R WCI  31
CLARKSVILLE    CLOUDY    31  25  78 NW15      30.17R WCI  20
COOKEVILLE     SUNNY     39  23  52 N8        30.05R WCI  34
CROSSVILLE     PTSUNNY   37  23  56 NW7       30.01R WCI  32
$$

TNZ061-075-076-078-094-096-097-262300-
SOUTH MIDDLE TENNESSEE

CITY           SKY/WX    TMP DP  RH WIND       PRES   REMARKS
FAYETTEVILLE   CLOUDY    39  25  56 N3          N/A
TULLAHOMA      PTSUNNY   37  25  60 N8        30.06R WCI  31
WINCHESTER     CLOUDY    39  27  60 N7        30.07R WCI  34
COLUMBIA         N/A     43  25  49 NW10      30.08R
SHELBYVILLE    MOSUNNY   43  25  49 NW12      30.08R
$$

TNZ017-018-042-046-047-262300-
NORTHEAST TENNESSEE

CITY           SKY/WX    TMP DP  RH WIND       PRES   REMARKS
TRI CITIES     CLOUDY    35  30  82 S7        29.99R WCI  29
ELIZABETHTON   CLOUDY    32  28  86 W5        29.98R WCI  27
$$

TNZ012-013-036-069-073-074-262300-
CENTRAL EAST TENNESSEE

CITY           SKY/WX    TMP DP  RH WIND       PRES   REMARKS
KNOXVILLE      CLOUDY    35  31  85 SW7       30.03R WCI  29
OAK RIDGE      CLOUDY    40  28  62 S3        30.04R
GATLINBURG     CLOUDY    36  28  75 SW6       30.02R WCI  31
$$

TNZ083-085-099-262300-
SOUTHEAST TENNESSEE

CITY           SKY/WX    TMP DP  RH WIND       PRES   REMARKS
CHATTANOOGA    PTSUNNY   41  28  60 N5        30.05R
$$

SKY/WX REPORTED AS FAIR MEANS FEW OR NO CLOUDS BELOW
12 THOUSAND FEET.



USA.gov is the U.S. government's official web portal to all federal, state and local government web resources and services.